Location: ??????
(56.0120°N, 39.1740°E)
Time: 14:34:29
(UTC+00:00)

CZ-4C R/B - Pass Details

Date: 14 April 2026
Orbit: 408 x 500 km, 98.0° (Epoch: 17 May)

Event Time Altitude Azimuth Distance (km) Brightness Sun altitude
Rises 22:15:10 0° 14° (NNE) 2,388 8.1 -23.4°
Reaches altitude 10° 22:17:12 10° 12° (NNE) 1,508 6.7 -23.4°
Enters shadow 22:19:31 43° 359° (N) 595 3.9 -23.3°
